Погода в Трёх Протоках

Россия / Астраханская область     46°19′31″N   48°07′05″E
темп.,
°C
ветер,
м/с
пор.,
м/с
влажн.,
%
обл.,
%
осадки,
мм/ч
давл.,
гПа
погр.,
м
9 марта, вт
вт901:00+1ююз61078100 0.0 1017477
04:000ююз61090100 0.0 1016334
07:000юз5109395 0.0 1016352
10:00+2юз697498 0.0 1016520
13:00+6зюз8105869 0.0 10151366
16:00+7з8114684 0.0 10131725
19:00+5з6106098 0.1 1014857
22:00+3зсз6106696 0.1 1016766
10 марта, ср
ср1001:00+1зсз496085 0.0 1016338
04:00−1з486360 0.0 1017263
07:00−1з6107526 0.0 1018511
10:00−1сз685664 0.0 1021893
13:00+1сз7103637 0.0 10221679
16:00+1сз793421 0.0 10221931
19:00−1ссз574058 0.0 10221048
22:00−2ссз464179 0.0 1024786
11 марта, чт
чт1101:00−3с3443100 0.0 1024659
04:00−5с4548100 0.0 1024640
07:00−6с4543100 0.0 1024666
10:00−5ссв4531100 0.0 1025654
13:00−3ссв5525100 0.0 10251038
16:00−3ссв5528100 0.0 10241181
19:00−5св5629100 0.0 1024965
22:00−6св5730100 0.0 1025964
12 марта, пт
пт1201:00−7св6832100 0.0 1025888
04:00−8св6838100 0.0 1026946
07:00−8св6843100 0.0 1028950
10:00−7св6738100 0.0 1029886
13:00−5св6727100 0.0 10301036
16:00−4св5622100 0.0 10301055
19:00−6всв5623100 0.0 1031948
22:00−6всв4625100 0.0 1033940
13 марта, сб
сб1301:00−7в243079 0.0 1033384
04:00−8всв243688 0.0 1033286
07:00−8всв244495 0.0 1034201
10:00−6всв353848 0.0 1035665
13:00−2в44250 0.0 10351186
16:000вюв45250 0.0 10331398
19:00−3юв35450 0.0 1032215
22:00−5юв24630 0.0 1033189